Weather History for Hickory, NC

Change the Weather History Date:

Wednesday, January 29, 2014

  Actual Average Record
Temperature  
Mean Temperature 22 °F -  
Max Temperature 30 °F 50 °F 78 °F (1975)
Min Temperature 14 °F 28 °F 10 °F (1977)
Degree Days  
Heating Degree Days 43    
Moisture  
Dew Point 5 °F    
Average Humidity 54    
Maximum Humidity 84    
Minimum Humidity 27    
Precipitation  
Precipitation 0.07 in - - ()
Sea Level Pressure  
Sea Level Pressure 30.24 in    
Wind  
Wind Speed 1 mph (North)    
Max Wind Speed 7 mph    
Max Gust Speed -    
Visibility 10 miles    
Events      
Averages and records for this station are not official NWS values.
T = Trace of Precipitation, MM = Missing Value Source: NWS Daily Summary

Daily Weather History Graph

Daily Weather History Graph

Search for Another Location

Airport:

Trip Planner

Search our weather history database for the weather conditions in past years. The results will help you decide how hot, cold, wet, or windy it might be!

Date:

Astronomy

Jan. 29, 2014 Rise Set
Actual Time 7:27 AM EST 5:49 PM EST
Civil Twilight 7:00 AM EST 6:16 PM EST
Nautical Twilight 6:30 AM EST 6:47 PM EST
Astronomical Twilight 6:00 AM EST 7:17 PM EST
Moon 6:03 AM EST (1/29) 4:47 PM EST (1/29)
Length of Visible Light 11h 16m
Length of Day
10h 21m
Waning Crescent, 2% of the Moon is Illuminated
Jan 29
Waning Crescent
Jan 30
New
Feb 6
First Quarter
Feb 14
Full
Feb 22
Last Quarter

Hourly Weather History & Observations

Time (EST) Temp. Windchill Dew Point Humidity Pressure Visibility Wind Dir Wind Speed Gust Speed Precip Events Conditions
12:53 AM 19.0 °F - 12.0 °F 74% 30.17 in 10.0 mi Calm Calm - N/A   Overcast
1:53 AM 19.0 °F 13.9 °F 12.9 °F 77% 30.15 in 10.0 mi North 3.5 mph - N/A   Overcast
2:53 AM 18.0 °F - 12.9 °F 81% 30.15 in 10.0 mi Calm Calm - N/A   Clear
3:53 AM 18.0 °F - 12.9 °F 81% 30.16 in 10.0 mi Calm Calm - N/A   Clear
4:53 AM 18.0 °F - 12.9 °F 81% 30.16 in 10.0 mi Calm Calm - N/A   Clear
5:53 AM 18.0 °F - 12.9 °F 81% 30.17 in 9.0 mi Calm Calm - N/A   Clear
6:53 AM 16.0 °F - 12.0 °F 84% 30.20 in 8.0 mi Calm Calm - N/A   Clear
7:53 AM 14.0 °F - 10.0 °F 84% 30.23 in 5.0 mi Calm Calm - N/A   Clear
8:53 AM 17.1 °F 11.7 °F 8.1 °F 68% 30.25 in 10.0 mi Variable 3.5 mph - N/A   Clear
9:53 AM 19.9 °F 11.1 °F -0.0 °F 42% 30.29 in 10.0 mi NNW 6.9 mph - N/A   Clear
10:53 AM 21.9 °F - 1.0 °F 40% 30.30 in 10.0 mi Calm Calm - 0.01 in   Clear
11:53 AM 23.0 °F - 1.0 °F 39% 30.30 in 10.0 mi Calm Calm - 0.03 in   Clear
12:53 PM 25.0 °F - -0.9 °F 33% 30.27 in 10.0 mi Calm Calm - 0.01 in   Clear
1:53 PM 27.0 °F - 3.0 °F 36% 30.25 in 10.0 mi Calm Calm - 0.02 in   Clear
2:53 PM 28.0 °F 22.8 °F 1.9 °F 33% 30.25 in 10.0 mi SW 4.6 mph - N/A   Clear
3:53 PM 30.0 °F 24.1 °F -0.0 °F 28% 30.25 in 10.0 mi Variable 5.8 mph - N/A   Clear
4:53 PM 30.0 °F 26.5 °F -0.9 °F 27% 30.25 in 10.0 mi West 3.5 mph - N/A   Clear
5:53 PM 28.0 °F - -2.0 °F 27% 30.26 in 10.0 mi Calm Calm - N/A   Clear
6:53 PM 25.0 °F - 3.0 °F 39% 30.28 in 10.0 mi Calm Calm - N/A   Clear
7:53 PM 25.0 °F - 3.0 °F 39% 30.28 in 10.0 mi Calm Calm - N/A   Clear
8:53 PM 23.0 °F - 3.9 °F 44% 30.29 in 10.0 mi Calm Calm - N/A   Clear
9:53 PM 21.9 °F - 5.0 °F 48% 30.30 in 10.0 mi Calm Calm - N/A   Clear
10:53 PM 19.0 °F 12.3 °F 3.0 °F 50% 30.31 in 10.0 mi ENE 4.6 mph - N/A   Clear
11:53 PM 19.0 °F 13.9 °F 3.0 °F 50% 30.31 in 10.0 mi East 3.5 mph - N/A   Clear